Visibility
15.0 15.0 15.0 15.0 15.0 15.0 15.0 15.0 15.0 15.0 15.0 15.0 15.0 15.0 15.0 15.0 15.0 15.0 15.0 15.0 15.0 15.0 15.0 15.0 15.0 15.0 15.0 15.0 15.0 15.0 15.0 15.0 15.0 15.0 15.0 15.0 15.0 15.0 15.0 15.0 15.0 15.0 15.0
15.0 15.0 15.0 15.0 15.0 15.0 15.0 15.0 15.0 15.0 15.0 15.0 15.0 15.0 15.0 15.0 15.0 15.0 15.0 15.0 15.0 15.0 15.0 15.0 15.0 15.0 15.0 15.0 15.0 15.0 15.0 15.0 15.0 15.0 3.7 15.0 15.0 15.0 15.0 15.0 15.0 15.0 15.0
15.0 15.0 15.0 15.0 15.0 15.0 15.0 15.0 15.0 15.0 15.0 15.0 15.0 15.0 15.0 15.0 15.0 15.0 15.0 15.0 15.0 15.0 15.0 15.0 15.0 15.0 15.0 15.0 15.0 15.0 15.0 15.0 15.0 15.0 5.5 15.0 15.0 15.0 15.0 15.0 15.0 15.0 15.0
15.0 15.0 15.0 15.0 15.0 15.0 15.0 15.0 15.0 15.0 15.0 15.0 15.0 15.0 15.0 15.0 15.0 15.0 15.0 15.0 15.0 15.0 15.0 15.0 15.0 15.0 15.0 15.0 15.0 15.0 15.0 15.0 15.0 15.0 15.0 15.0 15.0 15.0 15.0 15.0 15.0 15.0 15.0
15.0 15.0 15.0 15.0 15.0 15.0 15.0 15.0 15.0 15.0 15.0 15.0 15.0 15.0 15.0 15.0 15.0 15.0 15.0 15.0 15.0 15.0 15.0 15.0 15.0 15.0 15.0 15.0 15.0 15.0 15.0 13.6 15.0 15.0 15.0 9.1 15.0 15.0 15.0 15.0 13.4 15.0 15.0
15.0 15.0 15.0 15.0 15.0 15.0 15.0 15.0 15.0 15.0 15.0 15.0 15.0 15.0 15.0 15.0 15.0 15.0 15.0 15.0 15.0 15.0 15.0 15.0 15.0 15.0 15.0 15.0 15.0 15.0 15.0 4.1 2.1 0.6 2.6 14.9 15.0 15.0 13.3 3.7 2.3 6.7 0.0
15.0 15.0 15.0 15.0 15.0 15.0 15.0 15.0 15.0 15.0 15.0 15.0 15.0 15.0 15.0 15.0 15.0 15.0 15.0 15.0 15.0 15.0 15.0 15.0 15.0 15.0 15.0 15.0 15.0 15.0 1.7 15.0 15.0 15.0 2.4 2.2 3.1 15.0 4.9 0.0 0.0 0.0 3.0
15.0 15.0 15.0 15.0 15.0 15.0 15.0 15.0 15.0 15.0 15.0 15.0 15.0 15.0 15.0 15.0 15.0 15.0 15.0 15.0 15.0 15.0 15.0 15.0 15.0 13.8 15.0 15.0 13.8 0.1 15.0 15.0 15.0 15.0 10.1 15.0 8.1 7.8 10.7 8.9 6.5 3.7 5.6
15.0 15.0 15.0 15.0 15.0 15.0 15.0 15.0 15.0 15.0 15.0 15.0 15.0 15.0 15.0 15.0 15.0 15.0 15.0 15.0 15.0 15.0 15.0 15.0 2.3 14.9 15.0 13.2 0.1 14.6 15.0 15.0 15.0 15.0 15.0 11.8 7.7 15.0 6.4 13.0 0.3 1.1 1.4
15.0 15.0 15.0 15.0 15.0 15.0 15.0 15.0 15.0 15.0 15.0 15.0 15.0 15.0 15.0 15.0 15.0 15.0 15.0 15.0 15.0 15.0 14.7 3.5 15.0 15.0 15.0 1.2 11.7 15.0 15.0 15.0 8.4 13.8 15.0 15.0 15.0 15.0 14.9 11.1 1.1 0.0 0.2
15.0 15.0 15.0 15.0 15.0 15.0 15.0 15.0 15.0 15.0 15.0 15.0 15.0 15.0 15.0 15.0 15.0 15.0 15.0 15.0 10.5 3.8 2.5 15.0 15.0 15.0 0.1 10.6 15.0 15.0 14.8 13.4 12.7 15.0 15.0 15.0 15.0 15.0 15.0 15.0 0.1 0.0 0.0
15.0 15.0 15.0 15.0 15.0 15.0 15.0 15.0 15.0 15.0 15.0 15.0 15.0 15.0 15.0 15.0 15.0 15.0 15.0 15.0 11.6 4.0 4.4 15.0 13.3 0.8 15.0 15.0 15.0 15.0 15.0 14.2 15.0 8.4 6.2 6.3 4.1 6.1 11.1 10.7 10.5 0.1 0.0
15.0 15.0 15.0 15.0 15.0 15.0 15.0 15.0 15.0 15.0 15.0 15.0 15.0 15.0 15.0 15.0 15.0 15.0 15.0 3.6 3.1 15.0 15.0 3.0 9.0 15.0 15.0 15.0 15.0 15.0 15.0 15.0 6.5 1.3 1.8 4.5 5.7 10.6 11.3 5.3 14.9 0.2 9.4
15.0 15.0 15.0 15.0 15.0 15.0 15.0 15.0 15.0 15.0 15.0 15.0 15.0 15.0 15.0 15.0 15.0 15.0 9.5 4.4 9.0 3.7 0.7 15.0 15.0 15.0 15.0 15.0 15.0 15.0 15.0 7.9 5.4 0.7 0.4 2.5 8.0 7.6 4.2 9.9 0.3 3.3 0.2
15.0 15.0 15.0 15.0 15.0 15.0 15.0 15.0 15.0 15.0 15.0 15.0 15.0 15.0 5.2 5.4 14.3 7.7 9.6 11.1 5.3 2.0 13.1 15.0 15.0 10.6 15.0 15.0 15.0 15.0 15.0 15.0 4.2 6.9 0.7 0.4 1.1 10.4 7.2 10.7 0.2 0.2 0.1
15.0 15.0 15.0 15.0 15.0 15.0 15.0 15.0 15.0 15.0 15.0 15.0 15.0 15.0 15.0 9.3 5.9 8.7 15.0 5.0 1.6 15.0 15.0 15.0 14.0 4.6 7.6 7.9 9.8 7.9 15.0 15.0 7.7 0.4 0.3 0.4 0.2 0.2 0.2 0.2 0.1 0.1 0.1
15.0 15.0 15.0 15.0 15.0 15.0 15.0 15.0 15.0 15.0 15.0 15.0 15.0 15.0 15.0 15.0 14.7 15.0 4.3 1.8 15.0 15.0 15.0 7.9 4.6 5.4 5.2 5.8 14.7 4.6 0.9 12.9 0.6 0.1 0.1 0.1 0.1 0.2 0.1 0.1 0.1 0.1 0.1
15.0 15.0 15.0 15.0 15.0 15.0 15.0 15.0 15.0 15.0 15.0 15.0 15.0 15.0 15.0 15.0 15.0 14.5 2.6 15.0 15.0 15.0 12.9 3.6 3.9 4.7 5.1 4.7 4.7 0.7 0.3 0.3 0.2 0.1 0.1 0.1 0.1 0.1 0.1 0.1 0.1 0.1 0.1
15.0 15.0 15.0 15.0 15.0 15.0 15.0 15.0 15.0 15.0 15.0 15.0 15.0 15.0 15.0 15.0 13.0 3.5 15.0 15.0 12.2 5.4 4.3 4.7 4.9 5.6 4.4 5.8 3.9 0.4 0.2 0.1 0.1 0.1 0.1 0.1 0.1 0.1 0.1 0.1 1.1 2.4 15.0
15.0 15.0 15.0 15.0 15.0 15.0 15.0 15.0 15.0 15.0 10.3 14.2 15.0 15.0 15.0 9.1 1.3 15.0 15.0 14.5 4.8 4.1 4.7 5.0 5.8 6.3 3.5 2.9 0.3 0.1 0.1 0.1 0.1 0.1 0.1 0.1 0.3 2.4 3.8 11.5 15.0 15.0 15.0
15.0 15.0 15.0 15.0 15.0 15.0 15.0 15.0 11.8 11.4 15.0 10.2 15.0 15.0 7.5 9.5 15.0 15.0 6.5 5.8 5.1 5.4 2.5 3.5 4.5 3.6 6.3 2.4 0.2 0.1 0.1 0.1 0.1 0.1 0.3 0.3 5.5 14.8 15.0 15.0 15.0 15.0 14.5
15.0 15.0 15.0 15.0 15.0 15.0 15.0 15.0 15.0 15.0 15.0 15.0 15.0 15.0 14.4 15.0 15.0 10.2 6.2 6.1 5.9 5.3 5.0 3.5 1.4 6.8 5.6 0.1 0.1 0.1 0.1 0.1 0.1 0.3 0.5 1.2 15.0 15.0 15.0 15.0 15.0 0.5 0.4
15.0 15.0 15.0 15.0 15.0 15.0 15.0 15.0 15.0 15.0 15.0 15.0 15.0 15.0 15.0 15.0 14.2 7.2 5.1 7.6 7.0 6.2 8.4 8.0 4.8 6.4 0.6 0.1 0.1 0.1 0.1 0.1 0.2 0.2 1.4 13.8 15.0 15.0 15.0 15.0 15.0 1.7 3.5
15.0 15.0 15.0 15.0 15.0 15.0 15.0 15.0 15.0 15.0 15.0 15.0 15.0 15.0 15.0 12.0 7.0 9.3 13.1 9.2 6.2 6.7 14.9 15.0 15.0 0.4 0.1 0.1 0.1 0.1 0.1 0.1 0.2 14.7 15.0 15.0 8.5 1.8 4.4 7.5 3.7 3.4 5.1
15.0 15.0 15.0 15.0 15.0 15.0 15.0 15.0 15.0 15.0 15.0 15.0 15.0 11.8 9.5 14.7 13.0 9.5 7.3 6.5 1.9 8.1 15.0 15.0 2.7 0.1 0.1 0.1 0.1 0.2 0.1 15.0 15.0 15.0 15.0 9.4 0.6 0.6 1.0 1.0 0.5 0.7 0.6
15.0 15.0 15.0 15.0 15.0 15.0 15.0 13.4 5.6 3.4 2.3 10.9 5.0 8.3 15.0 6.7 4.7 4.4 1.4 2.3 9.6 8.7 10.2 14.5 0.2 0.1 0.1 0.3 0.3 0.4 15.0 15.0 15.0 15.0 5.5 4.4 14.6 2.7 1.3 0.3 0.1 0.2 0.3